RH
87 80 85 85 85 85 87 77 90 67 69 59 54 68 76 74 86 77 32 29 43 45 46 63 70 74 75 85 92 92 93 93 91 91 93 88 90 91 89 85 75 79 71 75
100 88 88 93 82 78 80 77 78 77 80 55 53 55 81 86 85 72 27 33 40 43 49 63 69 77 79 84 92 93 94 93 90 90 84 80 76 88 81 76 74 76 75 69
89 82 87 97 85 72 60 65 71 83 65 49 53 58 41 33 33 28 35 40 49 53 58 63 72 77 83 85 88 91 92 92 86 82 86 81 75 74 76 76 83 82 76 69
98 95 97 66 48 40 54 56 38 39 30 29 37 40 34 34 41 40 38 42 54 59 61 64 69 76 80 83 87 88 88 89 84 85 88 89 82 79 83 79 84 82 77 76
99 97 80 62 49 50 49 50 47 56 47 46 38 40 41 43 54 53 53 54 60 63 66 64 69 71 78 83 86 84 85 85 85 85 88 89 86 85 86 85 86 85 81 80
99 98 90 64 33 32 37 69 53 64 57 55 57 76 58 46 48 54 56 54 55 60 64 67 65 70 78 79 80 80 81 84 84 84 87 89 88 87 76 83 86 90 90 89
98 99 96 60 35 42 91 83 56 47 47 47 60 64 44 52 52 49 54 55 57 59 60 58 56 64 72 71 74 66 73 82 82 85 86 87 88 82 80 82 83 92 86 88
99 99 95 45 47 73 72 65 50 49 43 50 50 52 55 51 57 49 46 47 55 60 61 56 54 60 65 70 61 60 68 74 81 81 83 83 87 86 83 87 84 80 89 92
90 90 66 46 60 47 59 58 58 56 44 48 53 50 57 58 54 50 53 54 52 56 56 58 59 52 55 56 57 62 62 64 70 76 85 88 88 87 94 87 91 79 83 86
98 91 69 68 46 43 41 47 41 38 46 64 76 82 82 85 92 92 93 94 91 88 89 87 81 84 86 80 60 57 59 62 68 79 86 88 89 92 95 97 97 84 77 91
99 80 65 52 46 47 51 56 61 72 89 91 90 86 82 89 90 84 84 79 76 78 76 79 77 79 82 88 87 78 60 63 71 74 84 86 85 90 92 92 95 92 86 89
95 62 73 65 68 69 79 85 85 85 85 80 79 80 77 83 72 66 69 76 73 73 73 71 73 75 81 87 93 97 81 73 82 86 88 92 97 96 88 90 86 86 84 92
62 54 78 80 76 74 80 79 74 72 70 72 71 77 82 79 74 69 63 75 80 73 64 66 71 75 77 95 97 98 95 98 98 94 94 98 98 98 98 92 85 87 85 82
54 70 84 77 83 70 69 68 69 73 76 68 63 68 74 74 73 79 84 66 64 65 68 73 81 85 80 81 93 98 99 99 99 99 99 99 99 99 99 99 98 98 87 84
72 70 74 71 69 72 68 65 76 80 70 66 63 76 73 73 78 76 70 73 68 64 74 81 74 82 76 87 87 91 97 99 99 99 99 99 99 99 99 99 99 97 94 91
72 69 69 72 74 78 67 67 80 70 72 73 71 80 78 66 72 75 68 79 82 76 72 94 89 86 82 81 91 91 91 91 93 96 97 97 98 98 99 99 97 96 98 97
82 87 82 83 80 74 66 62 75 75 78 82 83 82 80 68 70 72 69 74 72 73 76 82 88 83 85 86 94 91 93 91 89 88 93 97 97 97 97 98 98 98 97 97
74 74 72 73 74 76 70 70 76 71 76 80 81 86 91 88 76 70 72 71 80 86 85 90 82 79 82 95 87 84 84 82 80 84 87 95 91 84 87 88 89 94 93 95
64 66 66 63 71 71 68 68 78 68 80 81 92 91 91 89 74 77 82 90 94 92 84 83 80 78 75 89 81 80 79 80 80 78 78 82 85 86 85 87 82 81 86 92
67 67 68 64 63 69 66 73 72 62 66 83 95 91 91 91 92 93 91 91 96 85 83 78 74 71 76 78 85 87 86 88 88 86 89 88 93 95 92 90 84 85 95 97
71 72 71 67 64 68 88 86 85 81 89 94 91 95 97 94 94 93 88 87 83 82 70 71 69 70 72 78 86 89 91 94 94 94 95 95 94 93 93 96 96 97 95 93
75 71 80 86 83 81 90 76 72 89 87 90 95 97 97 88 91 88 90 81 78 80 79 73 71 76 79 85 77 86 86 88 92 94 95 95 95 94 94 93 93 93 94 95
70 63 69 80 77 68 71 66 87 83 89 94 96 94 89 86 83 87 89 68 70 76 79 81 85 86 86 90 89 88 89 92 88 87 88 91 91 92 92 92 91 92 92 94
70 68 67 61 64 62 62 64 66 67 87 85 91 92 80 91 94 75 73 77 87 90 90 88 89 90 95 92 92 91 90 92 93 93 92 94 92 92 92 92 94 95 94 95
64 65 62 65 62 72 67 68 72 68 68 76 65 67 78 82 99 91 86 86 87 87 90 86 90 88 91 91 90 91 92 93 93 94 95 94 93 93 94 95 94 94 96 97
66 68 72 66 69 73 78 79 88 81 89 97 90 95 97 96 94 95 89 92 88 90 90 91 89 89 91 90 90 93 90 87 90 91 94 91 90 93 94 93 94 94 95 96
68 72 64 66 68 74 86 89 93 97 99 98 98 96 98 98 97 94 96 95 93 91 91 90 89 89 90 90 90 92 90 89 86 89 90 92 93 94 90 90 89 88 88 88
Wind_Speed
4 4 3 6 5 10 10 17 14 27 24 30 14 10 11 11 9 9 8 8 8 7 6 7 6 6 5 6 6 5 5 5 6 5 6 4 4 6 6 7 7 7 10 8
4 8 10 7 10 11 15 21 22 27 25 19 14 11 12 14 13 11 7 7 7 6 6 7 7 7 7 7 7 5 6 7 6 5 4 4 6 6 6 7 6 7 8 9
10 4 5 9 15 19 10 11 10 12 9 6 5 7 7 6 7 6 5 6 8 8 7 7 7 8 9 8 6 6 7 7 6 4 4 4 3 6 7 8 5 5 8 9
5 2 19 5 2 4 10 2 5 6 6 4 2 3 5 4 4 5 7 8 7 6 7 8 7 8 8 7 7 7 7 7 6 5 5 5 2 4 6 6 5 7 8 8
6 10 12 9 2 1 5 2 4 3 2 4 4 3 2 3 2 2 3 6 8 8 7 7 8 9 7 7 7 7 8 7 7 6 6 5 4 4 5 4 5 5 6 8
3 7 8 3 3 2 1 3 0 2 4 1 1 3 5 5 5 8 9 8 9 10 8 8 10 8 7 9 9 9 8 9 8 7 7 6 5 5 4 4 5 4 6 7
6 7 6 0 3 2 3 1 2 1 1 3 1 6 7 7 9 7 7 8 9 8 10 10 9 7 9 10 12 12 7 8 8 8 7 7 5 4 2 4 5 5 5 6
3 4 8 2 2 4 4 2 4 6 7 5 6 8 8 10 8 10 11 8 9 7 7 7 8 6 8 9 13 9 8 8 8 8 6 5 5 2 2 3 5 7 5 4
8 4 3 4 6 4 4 1 4 3 5 4 6 6 9 8 11 12 13 11 11 8 9 10 12 10 9 13 8 9 9 10 8 7 6 6 5 4 2 3 3 6 5 5
2 4 2 3 3 3 4 2 2 5 8 11 8 10 9 10 10 10 11 13 14 14 14 15 14 12 12 17 17 11 12 10 7 8 7 6 5 4 4 2 3 4 6 5
2 2 3 2 1 1 11 13 14 14 14 14 12 14 12 12 14 13 12 12 12 13 13 12 15 16 15 13 14 12 9 7 7 6 7 5 5 5 4 5 5 4 4 4
5 7 5 8 11 13 16 14 13 14 15 16 15 14 13 11 10 10 10 10 10 11 12 13 13 13 13 14 14 9 7 3 3 4 4 4 3 2 5 8 9 8 8 4
5 7 17 14 15 14 15 13 13 14 13 12 14 11 11 10 11 12 11 13 14 13 13 13 14 14 14 10 11 9 7 4 5 5 2 2 2 2 2 3 7 7 9 7
12 11 10 13 9 10 12 11 13 12 11 11 9 8 9 9 11 12 12 13 13 13 13 14 13 14 15 15 16 11 5 3 2 2 2 1 2 3 3 2 3 2 6 7
15 15 14 12 11 10 11 10 11 11 9 8 7 8 10 11 10 10 11 11 11 12 13 12 13 11 13 12 13 12 11 5 4 3 3 3 3 3 2 2 2 2 2 3
13 14 12 12 11 10 11 10 8 5 5 7 8 8 8 9 9 8 10 10 11 12 13 8 9 11 12 12 11 9 9 11 10 8 6 5 4 4 2 2 2 3 2 3
13 8 9 9 8 9 8 4 5 5 4 5 5 5 5 8 7 9 10 10 11 11 11 12 13 13 11 10 10 8 8 9 14 8 7 5 5 5 4 4 3 3 3 3
14 11 8 9 7 6 5 5 5 4 3 2 4 4 4 6 9 11 12 12 10 8 9 8 12 12 10 5 6 7 7 8 8 8 8 7 7 6 5 5 5 4 5 4
14 13 10 7 6 5 4 4 4 1 2 3 3 5 5 6 9 10 10 8 6 9 12 10 16 14 13 7 11 9 9 10 9 8 8 8 7 6 6 6 7 7 5 5
13 10 8 6 6 4 2 3 4 1 2 3 3 4 5 6 5 6 6 7 5 8 12 15 16 14 14 14 13 10 10 10 10 9 7 7 5 5 6 7 8 7 4 4
12 10 8 6 5 2 2 4 3 1 4 4 4 3 3 6 4 5 7 7 10 11 14 14 12 11 12 14 14 10 9 9 9 9 8 7 7 7 7 5 6 5 5 6
10 9 7 5 4 2 3 4 3 3 5 6 4 4 4 5 5 5 3 8 9 10 9 9 9 14 13 17 11 11 11 11 10 9 8 7 7 7 7 7 7 7 6 5
9 9 6 5 4 6 5 4 4 6 5 4 2 3 4 4 6 7 9 11 8 10 9 9 12 14 16 10 10 11 12 10 10 10 9 8 9 9 8 8 7 7 6 5
10 8 7 5 6 6 6 5 6 6 3 3 2 2 5 5 3 4 6 9 10 10 9 10 12 16 13 9 10 10 11 10 10 9 10 8 10 9 9 8 8 6 6 6
8 7 6 6 6 5 6 6 5 4 4 4 6 5 6 3 1 5 6 7 10 10 9 12 13 15 10 9 10 11 11 10 10 10 8 8 9 11 9 8 7 7 6 5
8 5 3 6 6 5 4 4 3 2 2 1 2 3 3 3 3 4 5 7 8 10 9 9 10 10 10 11 12 10 11 12 11 11 9 9 9 9 7 11 10 9 7 5
5 5 6 5 4 4 4 3 3 1 1 1 3 3 2 2 3 5 6 6 7 8 9 9 10 11 11 12 11 10 10 10 12 11 10 9 8 7 9 9 8 8 8 7
Wind_Direction
272 233 221 204 178 240 232 249 259 275 281 278 293 216 214 226 221 212 195 192 186 191 179 171 180 199 218 227 221 232 253 254 258 257 261 279 324 312 315 315 337 333 322 317
270 263 237 244 233 248 242 257 267 270 271 288 272 245 208 224 201 208 191 191 188 187 177 184 193 209 222 225 224 219 241 249 253 249 283 311 324 306 310 318 321 319 318 321
271 222 324 260 232 235 236 230 238 259 284 357 352 299 164 144 151 163 191 202 201 200 197 199 205 205 215 218 214 220 239 251 263 269 291 303 325 322 313 311 305 319 315 321
279 59 265 236 141 216 230 197 354 17 48 25 28 72 93 106 163 219 245 244 210 208 217 220 219 219 220 211 209 221 240 244 247 258 269 274 276 289 294 305 316 319 319 310
250 252 297 287 320 282 201 192 358 94 47 18 9 24 8 37 53 280 257 237 227 224 223 226 227 230 211 220 222 225 241 239 227 223 243 258 274 274 278 299 311 300 297 296
148 267 271 166 138 4 322 251 88 116 63 175 209 44 257 256 261 258 251 242 240 232 225 224 239 232 211 219 209 225 232 230 209 212 219 227 244 264 304 307 297 301 326 327
226 257 279 206 109 16 131 238 333 44 313 324 281 204 242 278 277 263 257 260 236 228 227 233 246 237 231 233 218 217 219 217 205 211 211 209 224 227 256 295 298 292 308 310
196 235 276 131 22 164 206 222 213 223 238 257 267 278 282 285 279 284 282 271 257 263 259 271 281 254 247 235 230 214 195 204 205 213 204 182 189 225 268 273 285 304 298 287
193 208 101 34 51 300 218 252 333 319 299 281 283 311 327 329 347 355 357 352 354 346 344 349 347 314 286 263 228 221 207 202 205 200 180 169 169 195 227 253 269 297 305 305
118 171 246 15 281 84 94 123 330 350 19 45 49 32 23 17 13 8 12 9 358 357 1 349 336 343 344 323 281 227 204 199 192 178 175 172 178 184 171 235 261 279 306 299
184 268 218 88 83 23 52 53 53 61 54 44 39 30 21 27 23 14 8 3 1 356 344 356 341 342 345 340 312 285 251 202 192 180 173 179 193 185 180 221 203 260 290 290
204 192 150 77 63 69 71 62 60 54 46 41 39 32 26 27 13 3 356 351 348 348 344 345 336 339 353 352 353 350 321 293 233 182 169 164 184 196 216 217 241 262 271 253
161 86 100 100 71 68 76 73 67 63 54 42 34 22 17 6 357 348 350 3 3 351 344 341 340 341 346 334 339 353 25 44 331 333 359 104 140 200 233 280 260 254 263 288
118 116 68 46 84 74 79 76 71 67 63 51 32 21 12 4 -0 8 15 354 352 348 344 342 347 358 354 351 338 309 298 306 243 271 279 268 231 237 208 227 254 203 256 253
79 81 102 112 97 86 76 70 66 61 48 36 25 25 18 7 357 356 353 349 347 344 344 355 352 343 344 340 338 348 341 310 299 290 277 267 266 242 242 246 226 230 269 291
105 99 102 92 89 82 78 62 80 75 57 36 21 9 6 353 338 341 341 340 344 335 329 321 335 333 335 335 334 340 343 349 355 341 329 325 308 291 273 224 248 247 232 238
114 97 89 89 93 94 91 111 112 84 58 38 1 343 340 342 339 341 338 333 330 326 341 346 348 339 335 343 351 349 341 338 333 320 309 320 333 325 327 325 302 269 263 249
100 102 99 109 107 128 134 102 100 72 33 14 316 313 311 331 337 338 335 329 330 334 352 351 342 334 330 322 352 345 333 328 328 331 328 335 337 332 331 324 319 309 307 283
111 112 110 119 141 136 111 101 138 107 313 282 286 301 330 337 337 332 328 328 322 347 341 332 335 328 327 326 340 331 319 309 304 300 298 301 300 302 303 298 300 295 287 282
115 121 137 127 112 124 148 151 149 265 290 285 357 16 356 327 318 322 318 316 345 336 335 339 328 328 328 332 328 316 305 301 299 297 291 288 280 266 275 279 282 283 268 262
140 145 129 128 128 156 81 141 171 237 299 70 74 21 319 310 318 316 338 343 347 353 341 333 341 341 333 329 322 307 302 296 292 291 289 286 283 281 282 268 263 259 267 274
148 135 143 133 147 115 153 157 120 89 72 62 40 24 347 337 332 332 310 348 335 341 334 335 334 332 324 327 320 319 313 311 309 303 294 285 283 284 280 275 275 274 267 265
136 134 133 162 170 136 136 99 93 89 77 89 86 348 345 338 348 346 338 343 331 328 324 324 317 320 322 322 322 322 322 325 316 310 304 307 302 294 289 289 285 280 278 270
130 145 157 159 139 130 106 85 88 81 90 48 82 277 347 347 337 341 328 322 316 319 315 319 321 320 319 324 319 319 315 310 304 303 295 302 300 283 278 273 268 261 261 267
137 144 149 149 136 127 115 102 92 57 45 42 358 354 352 342 233 321 323 322 318 325 324 324 324 331 328 331 326 321 316 311 309 304 308 318 320 324 290 269 268 266 259 254
142 154 162 146 137 129 118 107 102 54 39 315 293 307 301 310 310 309 320 319 325 323 329 326 332 330 330 328 320 319 328 330 330 325 322 326 317 311 347 350 343 336 328 311
145 145 127 120 117 117 118 112 101 19 255 229 259 287 287 301 318 324 326 324 327 331 332 334 334 332 331 326 324 329 330 330 331 324 311 314 315 334 319 315 312 309 306 303